sat.trackr.live / text

‹ back to catalog

GONETS-M 25

NORAD 54152 · 2022-139C

PAYLOAD ACTIVE UNKNOWN

§ Identity

Operator
Country
CIS
Launch date
2022-10-22
Launch site
VOSTO
Launch vehicle
Mass (kg)
RCS (m²)

External: N2YO · Heavens-Above · Gunter

§ Orbital elements

Epoch: 2026-09-20T22:23:31.346016Z

Period
115.86 min
Inclination
82.5008°
Eccentricity
0.0020930
Mean motion
12.42892828 rev/d
Perigee alt
1,477.9 km
Apogee alt
1,510.8 km
Semi-major
7,872.5 km
B*
2.1410e-4
RAAN
288.5319°
Arg perigee
25.2176°
Mean anomaly
334.9921°
Rev number
17,754

§ Raw data

GONETS-M 251 54152U 22139C   26263.93300169  .00000040  00000+0  21410-3 0  99982 54152  82.5008 288.5319 0020930  25.2176 334.9921 12.42892828177546

JSON: /api/v1/satellites/54152 · /tle

For live sub-satellite position, see the globe view (requires WebGL).

§ Visibility from observer

Set your observer location to see the next 7 days of passes ≥ 10°. The values pass through the URL so the page stays shareable.

No JS? Fill the form by hand. The geolocation button needs JavaScript.

§ Radio — SatNOGS DB

ModeDescriptionDownlinkUplink
FM UHF Unknown 387.175 MHz
FM UHF Unknown 388.687 MHz
FM UHF Unknown 388.787 MHz
FM UHF Unknown 262.910 MHz

4 transmitters · refreshed weekly from db.satnogs.org